Morris, MN

7:22 AM CDT on April 23, 2018 (GMT -0500)
Morris Municipal

Weather History for KMOX - June, 2014

Change the Weather History Date:

Saturday, June 7, 2014

  Actual Average Record
Temperature  
Mean Temperature 60 °F -  
Max Temperature 68 °F 71 °F 93 °F (2011)
Min Temperature 53 °F 51 °F 35 °F (1998)
Degree Days  
Heating Degree Days 4    
Growing Degree Days 10 (Base 50)    
Moisture  
Dew Point 48 °F    
Average Humidity 66    
Maximum Humidity 94    
Minimum Humidity 43    
Precipitation  
Precipitation 0.13 in - - ()
Sea Level Pressure  
Sea Level Pressure 30.06 in    
Wind  
Wind Speed 11 mph (NNE)    
Max Wind Speed 16 mph    
Max Gust Speed 21 mph    
Visibility 10 miles    
Events Rain , Thunderstorm    
Averages and records for this station are not official NWS values.
T = Trace of Precipitation, MM = Missing Value Source: NWS Daily Summary

Daily Weather History Graph

Daily Weather History Graph

Search for Another Location

Airport or City:

Astronomy

Jun. 07, 2014 Rise Set
Actual Time 5:35 AM CDT 9:10 PM CDT
Civil Twilight 4:58 AM CDT 9:47 PM CDT
Nautical Twilight 4:08 AM CDT 10:37 PM CDT
Astronomical Twilight 3:02 AM CDT 11:44 PM CDT
Moon 3:13 PM CDT (6/7) 2:14 AM CDT (6/7)
Length of Visible Light 16h 49m
Length of Day
15h 34m
Waxing Gibbous, 68% of the Moon is Illuminated
Jun 7
Waxing Gibbous
Jun 12
Full
Jun 19
Last Quarter
Jun 27
New
Jul 5
First Quarter

Hourly Weather History & Observations

Time (CDT) Temp. Dew Point Humidity Pressure Visibility Wind Dir Wind Speed Gust Speed Precip Events Conditions
12:10 AM 57.2 °F 50.0 °F 77% 30.02 in 10.0 mi NNW 12.7 mph - N/A   Scattered Clouds
12:30 AM 57.2 °F 50.0 °F 77% 30.01 in 10.0 mi North 15.0 mph - N/A   Mostly Cloudy
12:50 AM 57.2 °F 48.2 °F 72% 30.01 in 10.0 mi NNE 13.8 mph - N/A Rain Light Rain
1:10 AM 57.2 °F 48.2 °F 72% 30.03 in 10.0 mi North 10.4 mph - N/A Thunderstorm Overcast
1:30 AM 55.4 °F 48.2 °F 77% 30.02 in 10.0 mi North 13.8 mph - 0.02 in Rain Light Rain
1:50 AM 53.6 °F 48.2 °F 82% 30.04 in 10.0 mi NNW 16.1 mph - 0.06 in Rain Light Rain
2:10 AM 53.6 °F 50.0 °F 88% 30.03 in 10.0 mi North 12.7 mph 19.6 mph 0.02 in Rain Light Rain
2:30 AM 53.6 °F 50.0 °F 88% 30.04 in 7.0 mi North 12.7 mph - 0.03 in Rain Light Rain
2:50 AM 53.6 °F 50.0 °F 88% 30.04 in 10.0 mi North 11.5 mph - 0.05 in Rain Light Rain
3:10 AM 53.6 °F 50.0 °F 88% 30.04 in 10.0 mi NNE 16.1 mph - 0.01 in Rain Light Rain
3:30 AM 53.6 °F 48.2 °F 82% 30.04 in 10.0 mi North 11.5 mph - 0.02 in Rain Light Rain
3:50 AM 53.6 °F 50.0 °F 88% 30.04 in 10.0 mi North 9.2 mph - 0.02 in   Overcast
4:10 AM 53.6 °F 50.0 °F 88% 30.04 in 10.0 mi NNE 8.1 mph - N/A Rain Light Rain
4:30 AM 53.6 °F 50.0 °F 88% 30.07 in 10.0 mi NNE 8.1 mph - N/A Rain Light Rain
4:50 AM 53.6 °F 50.0 °F 88% 30.07 in 10.0 mi NNE 10.4 mph - N/A   Light Drizzle
5:10 AM 53.6 °F 48.2 °F 82% 30.06 in 10.0 mi North 11.5 mph - N/A   Overcast
5:30 AM 53.6 °F 48.2 °F 82% 30.04 in 10.0 mi NNE 13.8 mph - N/A   Overcast
5:50 AM 53.6 °F 48.2 °F 82% 30.05 in 10.0 mi North 10.4 mph - N/A   Overcast
6:10 AM 53.6 °F 50.0 °F 88% 30.06 in 10.0 mi North 9.2 mph - N/A Rain Rain
6:30 AM 53.6 °F 50.0 °F 88% 30.06 in 10.0 mi North 8.1 mph - N/A   Light Drizzle
7:10 AM 53.6 °F 50.0 °F 88% 30.06 in 10.0 mi NNW 11.5 mph - N/A   Overcast
8:10 AM 53.6 °F 51.8 °F 94% 30.08 in 10.0 mi North 5.8 mph - N/A   Mostly Cloudy
8:30 AM 55.4 °F 51.8 °F 88% 30.08 in 10.0 mi North 6.9 mph - N/A   Mostly Cloudy
8:50 AM 55.4 °F 50.0 °F 82% 30.08 in 10.0 mi North 9.2 mph - N/A   Mostly Cloudy
9:10 AM 55.4 °F 50.0 °F 82% 30.08 in 10.0 mi North 9.2 mph - N/A   Mostly Cloudy
9:30 AM 57.2 °F 50.0 °F 77% 30.08 in 10.0 mi NNE 9.2 mph - N/A   Mostly Cloudy
9:50 AM 57.2 °F 50.0 °F 77% 30.06 in 10.0 mi NE 6.9 mph - N/A   Scattered Clouds
10:10 AM 60.8 °F 50.0 °F 68% 30.07 in 10.0 mi North 9.2 mph - N/A   Clear
10:30 AM 60.8 °F 50.0 °F 68% 30.06 in 10.0 mi NNE 6.9 mph - N/A   Clear
10:50 AM 62.6 °F 50.0 °F 63% 30.06 in 10.0 mi NNE 11.5 mph - N/A   Clear
11:10 AM 62.6 °F 50.0 °F 63% 30.06 in 10.0 mi NNE 11.5 mph - N/A   Clear
11:30 AM 62.6 °F 48.2 °F 59% 30.06 in 10.0 mi NNE 13.8 mph - N/A   Clear
11:50 AM 64.4 °F 48.2 °F 56% 30.05 in 10.0 mi NNE 12.7 mph 20.7 mph N/A   Clear
12:10 PM 64.4 °F 48.2 °F 56% 30.05 in 10.0 mi ENE 16.1 mph 19.6 mph N/A   Scattered Clouds
12:30 PM 66.2 °F 50.0 °F 56% 30.05 in 10.0 mi NE 9.2 mph 19.6 mph N/A   Scattered Clouds
12:50 PM 64.4 °F 48.2 °F 56% 30.05 in 10.0 mi NE 11.5 mph - N/A   Scattered Clouds
1:10 PM 64.4 °F 48.2 °F 56% 30.05 in 10.0 mi ENE 9.2 mph 18.4 mph N/A   Scattered Clouds
1:30 PM 64.4 °F 48.2 °F 56% 30.05 in 10.0 mi NNE 12.7 mph 17.3 mph N/A   Mostly Cloudy
1:50 PM 64.4 °F 50.0 °F 59% 30.05 in 10.0 mi NE 10.4 mph 18.4 mph N/A   Scattered Clouds
2:10 PM 64.4 °F 48.2 °F 56% 30.05 in 10.0 mi NE 8.1 mph - N/A   Mostly Cloudy
2:30 PM 66.2 °F 48.2 °F 52% 30.05 in 10.0 mi NE 12.7 mph 20.7 mph N/A   Scattered Clouds
2:50 PM 68.0 °F 48.2 °F 49% 30.05 in 10.0 mi NNE 9.2 mph - N/A   Scattered Clouds
3:10 PM 66.2 °F 46.4 °F 49% 30.05 in 10.0 mi North 8.1 mph 11.5 mph N/A   Scattered Clouds
3:30 PM 68.0 °F 48.2 °F 49% 30.05 in 10.0 mi NNE 6.9 mph - N/A   Scattered Clouds
3:50 PM 68.0 °F 48.2 °F 49% 30.05 in 10.0 mi NNE 11.5 mph 20.7 mph N/A   Scattered Clouds
4:10 PM 68.0 °F 46.4 °F 46% 30.05 in 10.0 mi NNE 11.5 mph - N/A   Scattered Clouds
4:30 PM 68.0 °F 46.4 °F 46% 30.05 in 10.0 mi North 10.4 mph 18.4 mph N/A   Scattered Clouds
4:50 PM 66.2 °F 46.4 °F 49% 30.05 in 10.0 mi NNE 13.8 mph 18.4 mph N/A   Scattered Clouds
5:10 PM 66.2 °F 46.4 °F 49% 30.05 in 10.0 mi North 12.7 mph 19.6 mph N/A   Clear
5:30 PM 68.0 °F 44.6 °F 43% 30.05 in 10.0 mi North 11.5 mph - N/A   Clear
5:50 PM 68.0 °F 44.6 °F 43% 30.05 in 10.0 mi NNE 10.4 mph 17.3 mph N/A   Scattered Clouds
6:10 PM 66.2 °F 44.6 °F 46% 30.05 in 10.0 mi North 12.7 mph 16.1 mph N/A   Scattered Clouds
6:30 PM 66.2 °F 42.8 °F 43% 30.05 in 10.0 mi North 9.2 mph - N/A   Clear
6:50 PM 66.2 °F 44.6 °F 46% 30.05 in 10.0 mi NNE 8.1 mph - N/A   Clear
7:10 PM 66.2 °F 44.6 °F 46% 30.05 in 10.0 mi NE 6.9 mph - N/A   Clear
7:30 PM 66.2 °F 44.6 °F 46% 30.05 in 10.0 mi NE 6.9 mph - N/A   Clear
7:50 PM 64.4 °F 46.4 °F 52% 30.05 in 10.0 mi NNE 4.6 mph - N/A   Clear
8:10 PM 64.4 °F 44.6 °F 49% 30.06 in 10.0 mi North 6.9 mph - N/A   Clear
8:30 PM 62.6 °F 44.6 °F 52% 30.06 in 10.0 mi NNE 6.9 mph - N/A   Clear
8:50 PM 62.6 °F 44.6 °F 52% 30.06 in 10.0 mi North 5.8 mph - N/A   Clear
9:10 PM 60.8 °F 44.6 °F 55% 30.07 in 10.0 mi North 6.9 mph - N/A   Clear
9:30 PM 60.8 °F 44.6 °F 55% 30.07 in 10.0 mi North 5.8 mph - N/A   Clear
9:50 PM 59.0 °F 42.8 °F 55% 30.08 in 10.0 mi North 5.8 mph - N/A   Clear
10:10 PM 57.2 °F 44.6 °F 63% 30.08 in 10.0 mi North 5.8 mph - N/A   Clear
10:30 PM 57.2 °F 44.6 °F 63% 30.08 in 10.0 mi North 5.8 mph - N/A   Clear
10:50 PM 55.4 °F 44.6 °F 67% 30.08 in 10.0 mi North 4.6 mph - N/A   Clear
11:10 PM 53.6 °F 44.6 °F 72% 30.09 in 10.0 mi Calm Calm - N/A   Clear
11:30 PM 55.4 °F 44.6 °F 67% 30.09 in 10.0 mi Calm Calm - N/A   Clear
11:50 PM 55.4 °F 44.6 °F 67% 30.09 in 10.0 mi Calm Calm - N/A   Clear